Time,TemperatureF,DewpointF,PressureIn,WindDirection,WindDirectionDegrees,WindSpeedMPH,WindSpeedGustMPH,Humidity,HourlyPrecipIn,Conditions,Clouds,dailyrainin,SolarRadiationWatts/m^2,SoftwareType,DateUTC
2013-04-05 00:04:00,28.5,15.6,30.16,North,355,8.1,8.1,58,0.00,CLR,FEW,0.00,0.0,WeatherDisplay:10.37,2013-04-05 05:04:00,
2013-04-05 00:09:00,28.5,16.4,30.16,North,8,6.9,6.9,60,0.00,CLR,FEW,0.00,0.0,WeatherDisplay:10.37,2013-04-05 05:09:00,
2013-04-05 00:14:00,28.4,16.3,30.16,North,350,6.9,6.9,60,0.00,CLR,FEW,0.00,0.0,WeatherDisplay:10.37,2013-04-05 05:14:00,
2013-04-05 00:19:00,28.4,16.7,30.16,NNW,346,5.0,8.0,61,0.00,CLR,FEW,0.00,0.0,WeatherDisplay:10.37,2013-04-05 05:19:00,
2013-04-05 00:24:00,28.2,17.2,30.16,North,350,8.0,8.0,63,0.00,CLR,FEW,0.00,0.0,WeatherDisplay:10.37,2013-04-05 05:24:00,
2013-04-05 00:29:00,28.2,15.7,30.17,North,352,5.0,10.0,59,0.00,CLR,FEW,0.00,0.0,WeatherDisplay:10.37,2013-04-05 05:29:00,
2013-04-05 00:34:00,28.4,15.9,30.17,North,355,9.2,9.2,59,0.00,CLR,FEW,0.00,0.0,WeatherDisplay:10.37,2013-04-05 05:34:00,
2013-04-05 00:39:00,28.4,16.7,30.17,North,355,3.0,9.0,61,0.00,CLR,FEW,0.00,0.0,WeatherDisplay:10.37,2013-04-05 05:39:00,
2013-04-05 00:44:00,28.1,16.4,30.17,NNW,339,4.6,4.6,61,0.00,CLR,FEW,0.00,0.0,WeatherDisplay:10.37,2013-04-05 05:44:00,
2013-04-05 00:49:00,27.9,17.6,30.17,North,353,8.1,8.1,65,0.00,CLR,FEW,0.00,0.0,WeatherDisplay:10.37,2013-04-05 05:49:00,
2013-04-05 00:54:00,27.9,15.8,30.17,NNW,340,7.0,7.0,60,0.00,CLR,FEW,0.00,0.0,WeatherDisplay:10.37,2013-04-05 05:54:00,
2013-04-05 00:59:00,27.9,16.6,30.17,NNW,345,9.2,9.2,62,0.00,CLR,FEW,0.00,0.0,WeatherDisplay:10.37,2013-04-05 05:59:00,
2013-04-05 01:04:00,27.9,17.3,30.17,NNW,327,6.9,6.9,64,0.00,CLR,FEW,0.00,0.0,WeatherDisplay:10.37,2013-04-05 06:04:00,
2013-04-05 01:09:00,27.8,16.5,30.17,North,357,7.0,7.0,62,0.00,CLR,FEW,0.00,0.0,WeatherDisplay:10.37,2013-04-05 06:09:00,
2013-04-05 01:15:00,27.8,16.1,30.17,North,351,5.0,5.0,61,0.00,CLR,FEW,0.00,0.0,WeatherDisplay:10.37,2013-04-05 06:15:00,
2013-04-05 01:20:00,27.6,15.9,30.18,North,354,4.6,4.6,61,0.00,CLR,FEW,0.00,0.0,WeatherDisplay:10.37,2013-04-05 06:20:00,
2013-04-05 01:25:00,27.5,16.5,30.18,North,352,8.1,8.1,63,0.00,CLR,FEW,0.00,0.0,WeatherDisplay:10.37,2013-04-05 06:25:00,
2013-04-05 01:30:00,27.2,17.0,30.18,North,358,9.2,9.2,65,0.00,CLR,FEW,0.00,0.0,WeatherDisplay:10.37,2013-04-05 06:30:00,
2013-04-05 01:35:00,26.9,17.7,30.18,North,350,5.8,5.8,68,0.00,CLR,FEW,0.00,0.0,WeatherDisplay:10.37,2013-04-05 06:35:00,
2013-04-05 01:40:00,26.7,16.9,30.18,North,360,6.9,6.9,66,0.00,CLR,FEW,0.00,0.0,WeatherDisplay:10.37,2013-04-05 06:40:00,
2013-04-05 01:45:00,26.7,16.1,30.18,North,349,6.9,6.9,64,0.00,CLR,FEW,0.00,0.0,WeatherDisplay:10.37,2013-04-05 06:45:00,
2013-04-05 01:51:00,26.7,16.9,30.19,North,356,5.8,5.8,66,0.00,CLR,FEW,0.00,0.0,WeatherDisplay:10.37,2013-04-05 06:51:00,
2013-04-05 01:56:00,26.6,17.5,30.19,North,352,6.9,6.9,68,0.00,CLR,FEW,0.00,0.0,WeatherDisplay:10.37,2013-04-05 06:56:00,
2013-04-05 02:01:00,26.4,17.3,30.19,North,354,10.4,10.4,68,0.00,CLR,FEW,0.00,0.0,WeatherDisplay:10.37,2013-04-05 07:01:00,
2013-04-05 02:06:00,26.4,15.9,30.19,NNW,344,8.1,8.1,64,0.00,CLR,FEW,0.00,0.0,WeatherDisplay:10.37,2013-04-05 07:06:00,
2013-04-05 02:12:00,26.4,15.9,30.19,North,352,8.1,8.1,64,0.00,CLR,FEW,0.00,0.0,WeatherDisplay:10.37,2013-04-05 07:12:00,
2013-04-05 02:17:00,26.4,16.2,30.19,North,4,6.9,6.9,65,0.00,CLR,FEW,0.00,0.0,WeatherDisplay:10.37,2013-04-05 07:17:00,
2013-04-05 02:22:00,26.3,15.8,30.19,North,356,5.8,5.8,64,0.00,CLR,FEW,0.00,0.0,WeatherDisplay:10.37,2013-04-05 07:22:00,
2013-04-05 02:27:00,26.0,17.2,30.19,NNW,330,7.0,7.0,69,0.00,CLR,FEW,0.00,0.0,WeatherDisplay:10.37,2013-04-05 07:27:00,
2013-04-05 02:32:00,25.8,16.7,30.19,NNW,342,4.6,4.6,68,0.00,CLR,FEW,0.00,0.0,WeatherDisplay:10.37,2013-04-05 07:32:00,
2013-04-05 02:37:00,25.7,16.9,30.19,NNW,343,5.8,5.8,69,0.00,CLR,FEW,0.00,0.0,WeatherDisplay:10.37,2013-04-05 07:37:00,
2013-04-05 02:42:00,25.6,16.2,30.20,NNW,337,4.0,4.0,67,0.00,CLR,FEW,0.00,0.0,WeatherDisplay:10.37,2013-04-05 07:42:00,
2013-04-05 02:47:00,25.1,16.0,30.20,NNW,344,4.6,4.6,68,0.00,CLR,FEW,0.00,0.0,WeatherDisplay:10.37,2013-04-05 07:47:00,
2013-04-05 02:53:00,25.3,16.2,30.20,NNW,343,4.6,4.6,68,0.00,CLR,FEW,0.00,0.0,WeatherDisplay:10.37,2013-04-05 07:53:00,
2013-04-05 02:58:00,25.0,16.3,30.20,NNW,344,7.0,7.0,69,0.00,CLR,FEW,0.00,0.0,WeatherDisplay:10.37,2013-04-05 07:58:00,
2013-04-05 03:03:00,24.7,16.6,30.20,NNW,348,6.0,6.0,71,0.00,CLR,FEW,0.00,0.0,WeatherDisplay:10.37,2013-04-05 08:03:00,
2013-04-05 03:08:00,24.7,16.6,30.20,North,350,5.8,5.8,71,0.00,CLR,FEW,0.00,0.0,WeatherDisplay:10.37,2013-04-05 08:08:00,
2013-04-05 03:13:00,24.5,16.4,30.20,North,356,4.6,4.6,71,0.00,CLR,FEW,0.00,0.0,WeatherDisplay:10.37,2013-04-05 08:13:00,
2013-04-05 03:19:00,24.4,16.0,30.20,North,355,6.0,6.0,70,0.00,CLR,FEW,0.00,0.0,WeatherDisplay:10.37,2013-04-05 08:19:00,
2013-04-05 03:24:00,24.2,16.1,30.20,North,358,6.9,6.9,71,0.00,CLR,FEW,0.00,0.0,WeatherDisplay:10.37,2013-04-05 08:24:00,
2013-04-05 03:29:00,24.2,16.1,30.21,North,3,7.0,7.0,71,0.00,CLR,FEW,0.00,0.0,WeatherDisplay:10.37,2013-04-05 08:29:00,
2013-04-05 03:34:00,24.2,15.8,30.21,North,359,9.2,9.2,70,0.00,CLR,FEW,0.00,0.0,WeatherDisplay:10.37,2013-04-05 08:34:00,
2013-04-05 03:39:00,24.5,15.8,30.21,NNE,16,10.0,10.0,69,0.00,CLR,FEW,0.00,0.0,WeatherDisplay:10.37,2013-04-05 08:39:00,
2013-04-05 03:45:00,24.5,15.8,30.21,NNE,20,8.1,8.1,69,0.00,CLR,FEW,0.00,0.0,WeatherDisplay:10.37,2013-04-05 08:45:00,
2013-04-05 03:50:00,24.5,15.8,30.21,North,11,6.9,6.9,69,0.00,CLR,FEW,0.00,0.0,WeatherDisplay:10.37,2013-04-05 08:50:00,
2013-04-05 03:55:00,24.5,15.8,30.22,North,2,8.1,8.1,69,0.00,CLR,FEW,0.00,0.0,WeatherDisplay:10.37,2013-04-05 08:55:00,
2013-04-05 04:00:00,24.4,16.3,30.22,North,352,5.8,5.8,71,0.00,CLR,FEW,0.00,0.0,WeatherDisplay:10.37,2013-04-05 09:00:00,
2013-04-05 04:05:00,24.2,16.5,30.22,North,1,6.9,6.9,72,0.00,CLR,FEW,0.00,0.0,WeatherDisplay:10.37,2013-04-05 09:05:00,
2013-04-05 04:10:00,23.8,16.7,30.22,North,7,4.6,4.6,74,0.00,CLR,FEW,0.00,0.0,WeatherDisplay:10.37,2013-04-05 09:10:00,
2013-04-05 04:15:00,23.5,16.1,30.22,North,5,6.0,6.0,73,0.00,CLR,FEW,0.00,0.0,WeatherDisplay:10.37,2013-04-05 09:15:00,
2013-04-05 04:21:00,23.3,16.2,30.22,NNE,15,3.5,3.5,74,0.00,CLR,FEW,0.00,0.0,WeatherDisplay:10.37,2013-04-05 09:21:00,
2013-04-05 04:26:00,23.5,15.8,30.22,NNE,19,8.1,8.1,72,0.00,CLR,FEW,0.00,0.0,WeatherDisplay:10.37,2013-04-05 09:26:00,
2013-04-05 04:31:00,23.5,15.8,30.23,North,7,6.0,6.0,72,0.00,CLR,FEW,0.00,0.0,WeatherDisplay:10.37,2013-04-05 09:31:00,
2013-04-05 04:36:00,23.2,16.1,30.23,NE,51,8.1,8.1,74,0.00,CLR,FEW,0.00,0.0,WeatherDisplay:10.37,2013-04-05 09:36:00,
2013-04-05 04:42:00,23.6,14.9,30.23,NE,45,9.2,9.2,69,0.00,CLR,FEW,0.00,0.0,WeatherDisplay:10.37,2013-04-05 09:42:00,
2013-04-05 04:47:00,23.9,15.2,30.23,NNE,22,5.0,5.0,69,0.00,CLR,FEW,0.00,0.0,WeatherDisplay:10.37,2013-04-05 09:47:00,
2013-04-05 04:52:00,23.3,15.6,30.23,North,8,6.9,6.9,72,0.00,CLR,FEW,0.00,0.0,WeatherDisplay:10.37,2013-04-05 09:52:00,
2013-04-05 04:57:00,23.2,15.8,30.24,NNE,15,4.6,4.6,73,0.00,CLR,FEW,0.00,0.0,WeatherDisplay:10.37,2013-04-05 09:57:00,
2013-04-05 05:02:00,22.7,16.0,30.24,NNE,16,4.6,4.6,75,0.00,CLR,FEW,0.00,0.0,WeatherDisplay:10.37,2013-04-05 10:02:00,
2013-04-05 05:07:00,22.2,15.5,30.24,North,7,8.0,8.0,75,0.00,CLR,FEW,0.00,0.0,WeatherDisplay:10.37,2013-04-05 10:07:00,
2013-04-05 05:12:00,22.1,15.7,30.24,North,11,4.0,4.0,76,0.00,CLR,FEW,0.00,0.0,WeatherDisplay:10.37,2013-04-05 10:12:00,
2013-04-05 05:17:00,21.8,15.7,30.24,NNE,19,3.5,3.5,77,0.00,CLR,FEW,0.00,0.0,WeatherDisplay:10.37,2013-04-05 10:17:00,
2013-04-05 05:23:00,21.4,15.6,30.24,NNE,17,4.0,4.0,78,0.00,CLR,FEW,0.00,0.0,WeatherDisplay:10.37,2013-04-05 10:23:00,
2013-04-05 05:28:00,21.3,15.5,30.25,NNE,15,4.0,4.0,78,0.00,CLR,FEW,0.00,0.0,WeatherDisplay:10.37,2013-04-05 10:28:00,
2013-04-05 05:33:00,21.1,15.6,30.25,North,8,6.9,6.9,79,0.00,CLR,FEW,0.00,0.0,WeatherDisplay:10.37,2013-04-05 10:33:00,
2013-04-05 05:38:00,21.0,15.5,30.25,North,359,6.0,6.0,79,0.00,CLR,FEW,0.00,0.0,WeatherDisplay:10.37,2013-04-05 10:38:00,
2013-04-05 05:43:00,20.8,15.6,30.25,North,359,3.5,3.5,80,0.00,CLR,FEW,0.00,0.0,WeatherDisplay:10.37,2013-04-05 10:43:00,
2013-04-05 05:49:00,20.0,15.4,30.25,North,2,4.6,4.6,82,0.00,CLR,FEW,0.00,0.0,WeatherDisplay:10.37,2013-04-05 10:49:00,
2013-04-05 05:54:00,19.9,15.3,30.26,North,4,5.0,5.0,82,0.00,CLR,FEW,0.00,0.0,WeatherDisplay:10.37,2013-04-05 10:54:00,
2013-04-05 05:59:00,19.9,15.3,30.26,North,5,2.0,5.0,82,0.00,CLR,FEW,0.00,0.0,WeatherDisplay:10.37,2013-04-05 10:59:00,
2013-04-05 06:04:00,20.0,15.4,30.26,North,9,4.6,4.6,82,0.00,CLR,FEW,0.00,0.0,WeatherDisplay:10.37,2013-04-05 11:04:00,
2013-04-05 06:09:00,19.7,15.1,30.26,North,9,4.0,4.0,82,0.00,CLR,FEW,0.00,0.0,WeatherDisplay:10.37,2013-04-05 11:09:00,
2013-04-05 06:14:00,19.2,15.2,30.26,North,11,3.5,3.5,84,0.00,CLR,FEW,0.00,0.0,WeatherDisplay:10.37,2013-04-05 11:14:00,
2013-04-05 06:20:00,19.1,15.1,30.26,NNE,13,3.5,3.5,84,0.00,CLR,FEW,0.00,0.0,WeatherDisplay:10.37,2013-04-05 11:20:00,
2013-04-05 06:25:00,19.2,14.6,30.26,NNE,15,4.0,4.0,82,0.00,CLR,FEW,0.00,0.0,WeatherDisplay:10.37,2013-04-05 11:25:00,
2013-04-05 06:30:00,19.2,14.6,30.26,NNE,17,3.5,3.5,82,0.00,CLR,FEW,0.00,0.0,WeatherDisplay:10.37,2013-04-05 11:30:00,
2013-04-05 06:35:00,19.2,14.6,30.26,NNE,19,3.5,3.5,82,0.00,CLR,FEW,0.00,0.0,WeatherDisplay:10.37,2013-04-05 11:35:00,
2013-04-05 06:40:00,19.1,14.8,30.27,NNE,13,5.0,5.0,83,0.00,CLR,FEW,0.00,0.0,WeatherDisplay:10.37,2013-04-05 11:40:00,
2013-04-05 06:45:00,19.1,15.1,30.27,NNE,13,3.5,3.5,84,0.00,CLR,FEW,0.00,0.0,WeatherDisplay:10.37,2013-04-05 11:45:00,
2013-04-05 06:51:00,19.2,15.4,30.27,NNE,13,4.6,4.6,85,0.00,CLR,FEW,0.00,0.0,WeatherDisplay:10.37,2013-04-05 11:51:00,
2013-04-05 06:56:00,19.2,15.2,30.27,NNE,13,3.5,3.5,84,0.00,CLR,FEW,0.00,0.0,WeatherDisplay:10.37,2013-04-05 11:56:00,
2013-04-05 07:01:00,19.4,15.4,30.27,NNE,13,4.0,4.0,84,0.00,CLR,FEW,0.00,0.0,WeatherDisplay:10.37,2013-04-05 12:01:00,
2013-04-05 07:06:00,19.2,14.9,30.28,NNE,15,3.5,3.5,83,0.00,CLR,FEW,0.00,0.0,WeatherDisplay:10.37,2013-04-05 12:06:00,
2013-04-05 07:12:00,19.1,15.3,30.28,NNE,15,3.5,3.5,85,0.00,CLR,FEW,0.00,0.0,WeatherDisplay:10.37,2013-04-05 12:12:00,
2013-04-05 07:17:00,19.5,15.5,30.28,NNE,16,3.5,3.5,84,0.00,CLR,FEW,0.00,0.0,WeatherDisplay:10.37,2013-04-05 12:17:00,
2013-04-05 07:22:00,20.0,15.4,30.28,NNE,21,4.6,4.6,82,0.00,CLR,FEW,0.00,0.0,WeatherDisplay:10.37,2013-04-05 12:22:00,
2013-04-05 07:27:00,20.2,15.9,30.28,NNE,23,3.5,3.5,83,0.00,CLR,FEW,0.00,0.0,WeatherDisplay:10.37,2013-04-05 12:27:00,
2013-04-05 07:32:00,20.6,16.5,30.28,NNE,28,4.6,4.6,84,0.00,CLR,FEW,0.00,0.0,WeatherDisplay:10.37,2013-04-05 12:32:00,
2013-04-05 07:37:00,21.3,16.7,30.28,NNE,31,5.0,5.0,82,0.00,CLR,FEW,0.00,0.0,WeatherDisplay:10.37,2013-04-05 12:37:00,
2013-04-05 07:43:00,22.2,16.1,30.28,NE,37,5.8,5.8,77,0.00,CLR,FEW,0.00,0.0,WeatherDisplay:10.37,2013-04-05 12:43:00,
2013-04-05 07:48:00,23.5,16.1,30.28,NE,42,5.8,5.8,73,0.00,CLR,FEW,0.00,0.0,WeatherDisplay:10.37,2013-04-05 12:48:00,
2013-04-05 07:53:00,24.4,16.0,30.28,NE,51,6.9,6.9,70,0.00,CLR,FEW,0.00,0.0,WeatherDisplay:10.37,2013-04-05 12:53:00,
2013-04-05 07:58:00,25.0,16.3,30.28,NE,36,5.8,5.8,69,0.00,CLR,FEW,0.00,0.0,WeatherDisplay:10.37,2013-04-05 12:58:00,
2013-04-05 08:03:00,25.6,16.5,30.28,NE,56,6.0,6.0,68,0.00,OVC,FEW,0.00,0.0,WeatherDisplay:10.37,2013-04-05 13:03:00,
2013-04-05 08:08:00,26.0,16.5,30.28,NE,38,5.0,5.0,67,0.00,OVC,FEW,0.00,0.0,WeatherDisplay:10.37,2013-04-05 13:08:00,
2013-04-05 08:13:00,26.3,16.1,30.29,NE,45,6.9,6.9,65,0.00,OVC,FEW,0.00,0.0,WeatherDisplay:10.37,2013-04-05 13:13:00,
2013-04-05 08:18:00,26.6,16.8,30.29,NNE,20,5.0,5.0,66,0.00,OVC,FEW,0.00,0.0,WeatherDisplay:10.37,2013-04-05 13:18:00,
2013-04-05 08:24:00,27.0,16.4,30.29,NE,52,8.1,8.1,64,0.00,OVC,FEW,0.00,0.0,WeatherDisplay:10.37,2013-04-05 13:24:00,
2013-04-05 08:29:00,27.3,16.7,30.29,NE,48,3.0,8.0,64,0.00,OVC,FEW,0.00,0.0,WeatherDisplay:10.37,2013-04-05 13:29:00,
2013-04-05 08:34:00,27.8,16.5,30.29,NE,46,6.0,6.0,62,0.00,OVC,FEW,0.00,0.0,WeatherDisplay:10.37,2013-04-05 13:34:00,
2013-04-05 08:39:00,28.1,17.1,30.29,NE,48,8.1,8.1,63,0.00,OVC,FEW,0.00,0.0,WeatherDisplay:10.37,2013-04-05 13:39:00,
2013-04-05 08:44:00,28.2,16.8,30.29,ENE,75,9.2,9.2,62,0.00,OVC,FEW,0.00,0.0,WeatherDisplay:10.37,2013-04-05 13:44:00,
2013-04-05 08:50:00,28.7,17.3,30.29,NE,42,9.2,9.2,62,0.00,OVC,FEW,0.00,0.0,WeatherDisplay:10.37,2013-04-05 13:50:00,
2013-04-05 08:55:00,29.0,17.2,30.29,NE,42,8.1,8.1,61,0.00,OVC,FEW,0.00,0.0,WeatherDisplay:10.37,2013-04-05 13:55:00,
2013-04-05 09:00:00,29.1,16.9,30.29,North,355,6.0,6.0,60,0.00,OVC,FEW,0.00,0.0,WeatherDisplay:10.37,2013-04-05 14:00:00,
2013-04-05 09:05:00,29.3,16.7,30.29,NE,35,6.9,6.9,59,0.00,OVC,FEW,0.00,0.0,WeatherDisplay:10.37,2013-04-05 14:05:00,
2013-04-05 09:10:00,29.4,16.8,30.29,NE,55,5.0,5.0,59,0.00,OVC,FEW,0.00,0.0,WeatherDisplay:10.37,2013-04-05 14:10:00,
2013-04-05 09:15:00,29.7,17.1,30.29,NE,42,8.1,8.1,59,0.00,OVC,FEW,0.00,0.0,WeatherDisplay:10.37,2013-04-05 14:15:00,
2013-04-05 09:20:00,29.7,16.3,30.29,NNE,30,6.9,6.9,57,0.00,OVC,FEW,0.00,0.0,WeatherDisplay:10.37,2013-04-05 14:20:00,
2013-04-05 09:26:00,30.0,16.2,30.29,NE,49,5.8,5.8,56,0.00,OVC,FEW,0.00,0.0,WeatherDisplay:10.37,2013-04-05 14:26:00,
2013-04-05 09:31:00,30.3,16.5,30.29,NNE,21,6.9,6.9,56,0.00,OVC,FEW,0.00,0.0,WeatherDisplay:10.37,2013-04-05 14:31:00,
2013-04-05 09:36:00,30.9,16.6,30.29,East,96,6.9,6.9,55,0.00,OVC,FEW,0.00,0.0,WeatherDisplay:10.37,2013-04-05 14:36:00,
2013-04-05 09:42:00,30.7,16.8,30.29,East,86,7.0,7.0,56,0.00,OVC,FEW,0.00,0.0,WeatherDisplay:10.37,2013-04-05 14:42:00,
2013-04-05 09:47:00,31.3,16.1,30.29,ESE,106,6.9,6.9,53,0.00,OVC,FEW,0.00,0.0,WeatherDisplay:10.37,2013-04-05 14:47:00,
2013-04-05 09:52:00,31.5,16.3,30.29,East,89,3.5,3.5,53,0.00,OVC,FEW,0.00,0.0,WeatherDisplay:10.37,2013-04-05 14:52:00,
2013-04-05 09:57:00,31.8,17.5,30.29,ENE,72,5.8,5.8,55,0.00,OVC,FEW,0.00,0.0,WeatherDisplay:10.37,2013-04-05 14:57:00,
2013-04-05 10:02:00,32.7,17.9,30.29,SSE,154,5.8,5.8,54,0.00,OVC,FEW,0.00,0.0,WeatherDisplay:10.37,2013-04-05 15:02:00,
2013-04-05 10:07:00,32.8,18.0,30.29,SE,139,6.0,6.0,54,0.00,OVC,FEW,0.00,0.0,WeatherDisplay:10.37,2013-04-05 15:07:00,
2013-04-05 10:12:00,33.1,16.9,30.29,SSE,158,9.2,9.2,51,0.00,OVC,FEW,0.00,0.0,WeatherDisplay:10.37,2013-04-05 15:12:00,
2013-04-05 10:17:00,33.2,17.0,30.29,ENE,63,8.1,8.1,51,0.00,OVC,FEW,0.00,0.0,WeatherDisplay:10.37,2013-04-05 15:17:00,
2013-04-05 10:22:00,32.9,16.7,30.29,ESE,108,8.1,8.1,51,0.00,OVC,FEW,0.00,0.0,WeatherDisplay:10.37,2013-04-05 15:22:00,
2013-04-05 10:27:00,33.5,15.9,30.29,East,90,9.0,9.0,48,0.00,OVC,FEW,0.00,0.0,WeatherDisplay:10.37,2013-04-05 15:27:00,
2013-04-05 10:32:00,33.8,16.2,30.29,East,93,5.8,5.8,48,0.00,OVC,FEW,0.00,0.0,WeatherDisplay:10.37,2013-04-05 15:32:00,
2013-04-05 10:38:00,34.1,16.9,30.28,SE,129,7.0,7.0,49,0.00,OVC,FEW,0.00,0.0,WeatherDisplay:10.37,2013-04-05 15:38:00,
2013-04-05 10:43:00,34.3,16.1,30.28,SE,141,6.9,6.9,47,0.00,OVC,FEW,0.00,0.0,WeatherDisplay:10.37,2013-04-05 15:43:00,
2013-04-05 10:48:00,33.8,17.1,30.28,South,177,6.9,6.9,50,0.00,OVC,FEW,0.00,0.0,WeatherDisplay:10.37,2013-04-05 15:48:00,
2013-04-05 10:53:00,34.3,16.6,30.28,SE,130,10.4,10.4,48,0.00,OVC,FEW,0.00,0.0,WeatherDisplay:10.37,2013-04-05 15:53:00,
2013-04-05 10:58:00,35.0,15.3,30.27,SE,135,8.1,8.1,44,0.00,OVC,FEW,0.00,0.0,WeatherDisplay:10.37,2013-04-05 15:58:00,
2013-04-05 11:03:00,34.6,15.9,30.27,ESE,104,5.8,5.8,46,0.00,OVC,FEW,0.00,0.0,WeatherDisplay:10.37,2013-04-05 16:03:00,
2013-04-05 11:09:00,34.7,17.0,30.27,SE,135,5.8,5.8,48,0.00,OVC,FEW,0.00,0.0,WeatherDisplay:10.37,2013-04-05 16:09:00,
2013-04-05 11:14:00,34.9,15.7,30.27,ESE,109,6.0,6.0,45,0.00,OVC,FEW,0.00,0.0,WeatherDisplay:10.37,2013-04-05 16:14:00,
2013-04-05 11:19:00,34.9,14.6,30.27,SE,140,8.0,8.0,43,0.00,OVC,FEW,0.00,0.0,WeatherDisplay:10.37,2013-04-05 16:19:00,
2013-04-05 11:24:00,34.3,13.0,30.27,SE,139,4.6,4.6,41,0.00,OVC,FEW,0.00,0.0,WeatherDisplay:10.37,2013-04-05 16:24:00,
2013-04-05 11:29:00,34.7,15.5,30.27,NNE,23,4.6,4.6,45,0.00,OVC,FEW,0.00,0.0,WeatherDisplay:10.37,2013-04-05 16:29:00,
2013-04-05 11:35:00,34.4,14.7,30.27,ENE,71,6.9,6.9,44,0.00,OVC,FEW,0.00,0.0,WeatherDisplay:10.37,2013-04-05 16:35:00,
2013-04-05 11:40:00,34.4,14.2,30.27,ENE,71,2.0,2.0,43,0.00,OVC,FEW,0.00,0.0,WeatherDisplay:10.37,2013-04-05 16:40:00,
2013-04-05 11:45:00,35.0,14.2,30.27,East,92,6.0,6.0,42,0.00,OVC,FEW,0.00,0.0,WeatherDisplay:10.37,2013-04-05 16:45:00,
2013-04-05 11:50:00,35.2,14.4,30.27,SE,127,5.0,5.0,42,0.00,OVC,FEW,0.00,0.0,WeatherDisplay:10.37,2013-04-05 16:50:00,
2013-04-05 11:55:00,35.6,13.0,30.26,South,183,4.6,4.6,39,0.00,OVC,FEW,0.00,0.0,WeatherDisplay:10.37,2013-04-05 16:55:00,
2013-04-05 12:00:00,35.6,13.6,30.27,SE,134,9.2,9.2,40,0.00,OVC,FEW,0.00,0.0,WeatherDisplay:10.37,2013-04-05 17:00:00,
2013-04-05 12:05:00,36.3,14.3,30.26,SSE,163,8.1,8.1,40,0.00,OVC,FEW,0.00,0.0,WeatherDisplay:10.37,2013-04-05 17:05:00,
2013-04-05 12:10:00,36.5,12.0,30.26,ESE,115,3.5,3.5,36,0.00,OVC,FEW,0.00,0.0,WeatherDisplay:10.37,2013-04-05 17:10:00,
2013-04-05 12:16:00,36.2,12.4,30.26,East,94,3.5,3.5,37,0.00,OVC,FEW,0.00,0.0,WeatherDisplay:10.37,2013-04-05 17:16:00,
2013-04-05 12:21:00,36.5,13.3,30.26,ESE,119,9.2,9.2,38,0.00,OVC,FEW,0.00,0.0,WeatherDisplay:10.37,2013-04-05 17:21:00,
2013-04-05 12:26:00,36.9,13.6,30.26,ESE,120,5.8,5.8,38,0.00,OVC,FEW,0.00,0.0,WeatherDisplay:10.37,2013-04-05 17:26:00,
2013-04-05 12:31:00,36.9,13.0,30.25,SSE,150,10.4,10.4,37,0.00,OVC,FEW,0.00,0.0,WeatherDisplay:10.37,2013-04-05 17:31:00,
2013-04-05 12:36:00,36.6,13.4,30.25,SE,127,5.8,5.8,38,0.00,OVC,FEW,0.00,0.0,WeatherDisplay:10.37,2013-04-05 17:36:00,
2013-04-05 12:41:00,36.5,15.0,30.25,SSE,154,6.0,6.0,41,0.00,OVC,FEW,0.00,0.0,WeatherDisplay:10.37,2013-04-05 17:41:00,
2013-04-05 12:46:00,36.5,10.7,30.25,SE,146,2.3,2.3,34,0.00,OVC,FEW,0.00,0.0,WeatherDisplay:10.37,2013-04-05 17:46:00,
2013-04-05 12:51:00,37.3,12.1,30.25,SE,144,4.6,4.6,35,0.00,OVC,FEW,0.00,0.0,WeatherDisplay:10.37,2013-04-05 17:51:00,
2013-04-05 12:56:00,37.5,14.2,30.25,SSW,198,5.8,5.8,38,0.00,OVC,FEW,0.00,0.0,WeatherDisplay:10.37,2013-04-05 17:56:00,
2013-04-05 13:02:00,37.9,13.3,30.24,SSE,167,4.6,4.6,36,0.00,OVC,FEW,0.00,0.0,WeatherDisplay:10.37,2013-04-05 18:02:00,
2013-04-05 13:07:00,37.9,12.6,30.24,ESE,113,5.0,5.0,35,0.00,OVC,FEW,0.00,0.0,WeatherDisplay:10.37,2013-04-05 18:07:00,
2013-04-05 13:12:00,37.3,12.1,30.24,SE,128,4.0,4.0,35,0.00,OVC,FEW,0.00,0.0,WeatherDisplay:10.37,2013-04-05 18:12:00,
2013-04-05 13:17:00,37.3,11.5,30.24,SSE,148,4.0,4.0,34,0.00,OVC,FEW,0.00,0.0,WeatherDisplay:10.37,2013-04-05 18:17:00,
2013-04-05 13:22:00,38.0,11.4,30.23,East,97,5.8,5.8,33,0.00,OVC,FEW,0.00,0.0,WeatherDisplay:10.37,2013-04-05 18:22:00,
2013-04-05 13:27:00,37.8,12.6,30.23,East,88,9.2,9.2,35,0.00,OVC,FEW,0.00,0.0,WeatherDisplay:10.37,2013-04-05 18:27:00,
2013-04-05 13:32:00,38.2,13.6,30.23,East,91,5.8,5.8,36,0.00,OVC,FEW,0.00,0.0,WeatherDisplay:10.37,2013-04-05 18:32:00,
2013-04-05 13:38:00,37.6,11.7,30.23,East,91,3.5,3.5,34,0.00,OVC,FEW,0.00,0.0,WeatherDisplay:10.37,2013-04-05 18:38:00,
2013-04-05 13:43:00,38.2,10.9,30.22,East,93,4.6,4.6,32,0.00,OVC,FEW,0.00,0.0,WeatherDisplay:10.37,2013-04-05 18:43:00,
2013-04-05 13:48:00,38.5,11.1,30.22,East,93,2.3,2.3,32,0.00,OVC,FEW,0.00,0.0,WeatherDisplay:10.37,2013-04-05 18:48:00,
2013-04-05 13:53:00,38.3,12.3,30.22,East,93,2.0,2.0,34,0.00,OVC,FEW,0.00,0.0,WeatherDisplay:10.37,2013-04-05 18:53:00,
2013-04-05 13:58:00,38.3,13.6,30.21,ENE,70,5.0,5.0,36,0.00,OVC,FEW,0.00,0.0,WeatherDisplay:10.37,2013-04-05 18:58:00,
2013-04-05 14:03:00,38.5,13.2,30.21,SE,141,8.0,8.0,35,0.00,OVC,FEW,0.00,0.0,WeatherDisplay:10.37,2013-04-05 19:03:00,
2013-04-05 14:09:00,39.1,12.4,30.21,SE,146,4.6,4.6,33,0.00,OVC,FEW,0.00,0.0,WeatherDisplay:10.37,2013-04-05 19:09:00,
2013-04-05 14:14:00,38.5,11.8,30.21,SE,146,2.3,2.3,33,0.00,OVC,FEW,0.00,0.0,WeatherDisplay:10.37,2013-04-05 19:14:00,
2013-04-05 14:19:00,38.1,12.2,30.21,SE,146,0.0,4.0,34,0.00,OVC,FEW,0.00,0.0,WeatherDisplay:10.37,2013-04-05 19:19:00,
2013-04-05 14:24:00,38.8,11.4,30.21,East,86,8.1,8.1,32,0.00,OVC,FEW,0.00,0.0,WeatherDisplay:10.37,2013-04-05 19:24:00,
2013-04-05 14:29:00,39.2,11.0,30.20,ESE,102,2.0,8.0,31,0.00,OVC,FEW,0.00,0.0,WeatherDisplay:10.37,2013-04-05 19:29:00,
2013-04-05 14:34:00,38.9,11.5,30.20,East,96,7.0,7.0,32,0.00,OVC,FEW,0.00,0.0,WeatherDisplay:10.37,2013-04-05 19:34:00,
2013-04-05 14:39:00,39.2,12.5,30.20,East,85,3.0,8.0,33,0.00,OVC,FEW,0.00,0.0,WeatherDisplay:10.37,2013-04-05 19:39:00,
2013-04-05 14:44:00,39.2,11.0,30.20,SE,143,8.1,8.1,31,0.00,OVC,FEW,0.00,0.0,WeatherDisplay:10.37,2013-04-05 19:44:00,
2013-04-05 14:50:00,39.3,11.1,30.20,ESE,112,6.9,6.9,31,0.00,OVC,FEW,0.00,0.0,WeatherDisplay:10.37,2013-04-05 19:50:00,
2013-04-05 14:55:00,39.2,13.1,30.20,ESE,109,3.5,3.5,34,0.00,OVC,FEW,0.00,0.0,WeatherDisplay:10.37,2013-04-05 19:55:00,
2013-04-05 15:00:00,39.2,13.8,30.20,ESE,110,3.5,3.5,35,0.00,OVC,FEW,0.00,0.0,WeatherDisplay:10.37,2013-04-05 20:00:00,
2013-04-05 15:05:00,39.3,11.9,30.20,ESE,109,0.0,0.0,32,0.00,OVC,FEW,0.00,0.0,WeatherDisplay:10.37,2013-04-05 20:05:00,
2013-04-05 15:10:00,39.2,11.8,30.20,ESE,110,2.3,2.3,32,0.00,OVC,FEW,0.00,0.0,WeatherDisplay:10.37,2013-04-05 20:10:00,
2013-04-05 15:16:00,39.2,16.9,30.20,SW,215,5.0,5.0,40,0.00,OVC,FEW,0.00,0.0,WeatherDisplay:10.37,2013-04-05 20:16:00,
2013-04-05 15:21:00,39.6,15.4,30.20,SW,227,3.5,3.5,37,0.00,OVC,FEW,0.00,0.0,WeatherDisplay:10.37,2013-04-05 20:21:00,
2013-04-05 15:26:00,39.3,13.2,30.20,SW,215,4.0,4.0,34,0.00,OVC,FEW,0.00,0.0,WeatherDisplay:10.37,2013-04-05 20:26:00,
2013-04-05 15:31:00,39.5,11.3,30.20,SSE,165,8.0,8.0,31,0.00,OVC,FEW,0.00,0.0,WeatherDisplay:10.37,2013-04-05 20:31:00,
2013-04-05 15:37:00,39.9,13.8,30.20,SSE,165,6.9,6.9,34,0.00,OVC,FEW,0.00,0.0,WeatherDisplay:10.37,2013-04-05 20:37:00,
2013-04-05 15:42:00,39.6,10.7,30.20,SSE,163,3.5,3.5,30,0.00,OVC,FEW,0.00,0.0,WeatherDisplay:10.37,2013-04-05 20:42:00,
2013-04-05 15:47:00,39.8,11.6,30.19,South,174,10.4,10.4,31,0.00,OVC,FEW,0.00,0.0,WeatherDisplay:10.37,2013-04-05 20:47:00,
2013-04-05 15:52:00,39.8,10.8,30.19,SSE,167,4.6,4.6,30,0.00,OVC,FEW,0.00,0.0,WeatherDisplay:10.37,2013-04-05 20:52:00,
2013-04-05 15:57:00,39.8,13.0,30.19,SSE,164,2.3,2.3,33,0.00,OVC,FEW,0.00,0.0,WeatherDisplay:10.37,2013-04-05 20:57:00,
2013-04-05 16:02:00,40.1,15.9,30.19,South,184,2.3,2.3,37,0.00,OVC,FEW,0.00,0.0,WeatherDisplay:10.37,2013-04-05 21:02:00,
2013-04-05 16:08:00,39.5,15.3,30.19,SW,215,5.8,5.8,37,0.00,OVC,FEW,0.00,0.0,WeatherDisplay:10.37,2013-04-05 21:08:00,
2013-04-05 16:13:00,38.9,14.8,30.19,WSW,238,6.9,6.9,37,0.00,OVC,FEW,0.00,0.0,WeatherDisplay:10.37,2013-04-05 21:13:00,
2013-04-05 16:18:00,38.8,18.2,30.18,South,177,10.4,10.4,43,0.00,OVC,FEW,0.00,0.0,WeatherDisplay:10.37,2013-04-05 21:18:00,
2013-04-05 16:23:00,39.3,13.2,30.18,SSE,165,5.8,5.8,34,0.00,OVC,FEW,0.00,0.0,WeatherDisplay:10.37,2013-04-05 21:23:00,
2013-04-05 16:28:00,39.8,13.0,30.18,SSE,165,4.6,4.6,33,0.00,OVC,FEW,0.00,0.0,WeatherDisplay:10.37,2013-04-05 21:28:00,
2013-04-05 16:33:00,39.5,18.3,30.18,SSE,165,8.0,8.0,42,0.00,OVC,FEW,0.00,0.0,WeatherDisplay:10.37,2013-04-05 21:33:00,
2013-04-05 16:38:00,39.6,12.8,30.18,South,179,4.0,4.0,33,0.00,OVC,FEW,0.00,0.0,WeatherDisplay:10.37,2013-04-05 21:38:00,
2013-04-05 16:44:00,39.5,12.0,30.17,SSE,158,6.9,6.9,32,0.00,OVC,FEW,0.00,0.0,WeatherDisplay:10.37,2013-04-05 21:44:00,
2013-04-05 16:49:00,39.1,13.1,30.17,SSE,148,6.0,6.0,34,0.00,OVC,FEW,0.00,0.0,WeatherDisplay:10.37,2013-04-05 21:49:00,
2013-04-05 16:54:00,39.1,11.7,30.17,SSW,192,4.0,4.0,32,0.00,OVC,FEW,0.00,0.0,WeatherDisplay:10.37,2013-04-05 21:54:00,
2013-04-05 17:00:00,39.1,13.1,30.17,South,184,4.6,4.6,34,0.00,OVC,FEW,0.00,0.0,WeatherDisplay:10.37,2013-04-05 22:00:00,
2013-04-05 17:05:00,39.1,12.4,30.17,SSE,156,10.4,10.4,33,0.00,OVC,FEW,0.00,0.0,WeatherDisplay:10.37,2013-04-05 22:05:00,
2013-04-05 17:10:00,39.1,12.4,30.16,SSE,156,10.0,10.0,33,0.00,OVC,FEW,0.00,0.0,WeatherDisplay:10.37,2013-04-05 22:10:00,
2013-04-05 17:15:00,39.2,11.8,30.16,SSE,154,5.8,5.8,32,0.00,OVC,FEW,0.00,0.0,WeatherDisplay:10.37,2013-04-05 22:15:00,
2013-04-05 17:20:00,39.2,13.1,30.16,SSE,162,8.1,8.1,34,0.00,OVC,FEW,0.00,0.0,WeatherDisplay:10.37,2013-04-05 22:20:00,
2013-04-05 17:25:00,39.2,13.1,30.16,SE,132,8.0,8.0,34,0.00,OVC,FEW,0.00,0.0,WeatherDisplay:10.37,2013-04-05 22:25:00,
2013-04-05 17:30:00,39.2,14.4,30.16,SE,139,4.6,4.6,36,0.00,OVC,FEW,0.00,0.0,WeatherDisplay:10.37,2013-04-05 22:30:00,
2013-04-05 17:35:00,39.1,14.4,30.16,SSE,156,8.1,8.1,36,0.00,OVC,FEW,0.00,0.0,WeatherDisplay:10.37,2013-04-05 22:35:00,
2013-04-05 17:41:00,38.8,13.4,30.16,SSE,159,9.2,9.2,35,0.00,OVC,FEW,0.00,0.0,WeatherDisplay:10.37,2013-04-05 22:41:00,
2013-04-05 17:46:00,38.6,12.6,30.16,SSW,202,6.0,6.0,34,0.00,OVC,FEW,0.00,0.0,WeatherDisplay:10.37,2013-04-05 22:46:00,
2013-04-05 17:52:00,38.5,11.8,30.16,South,175,10.4,10.4,33,0.00,OVC,FEW,0.00,0.0,WeatherDisplay:10.37,2013-04-05 22:52:00,
2013-04-05 17:57:00,38.3,13.6,30.16,SSE,160,10.0,10.0,36,0.00,OVC,FEW,0.00,0.0,WeatherDisplay:10.37,2013-04-05 22:57:00,
2013-04-05 18:02:00,38.2,14.8,30.16,South,170,6.9,6.9,38,0.00,CLR,FEW,0.00,0.0,WeatherDisplay:10.37,2013-04-05 23:02:00,
2013-04-05 18:07:00,38.2,12.3,30.16,South,176,5.0,5.0,34,0.00,CLR,FEW,0.00,0.0,WeatherDisplay:10.37,2013-04-05 23:07:00,
2013-04-05 18:12:00,38.2,12.3,30.16,South,171,8.1,8.1,34,0.00,CLR,FEW,0.00,0.0,WeatherDisplay:10.37,2013-04-05 23:12:00,
2013-04-05 18:17:00,38.0,14.0,30.15,South,185,8.1,8.1,37,0.00,CLR,FEW,0.00,0.0,WeatherDisplay:10.37,2013-04-05 23:17:00,
2013-04-05 18:23:00,38.0,13.4,30.15,South,184,9.2,9.2,36,0.00,CLR,FEW,0.00,0.0,WeatherDisplay:10.37,2013-04-05 23:23:00,
2013-04-05 18:28:00,37.9,15.1,30.15,SSW,193,8.1,8.1,39,0.00,CLR,FEW,0.00,0.0,WeatherDisplay:10.37,2013-04-05 23:28:00,
2013-04-05 18:33:00,37.8,15.0,30.15,South,189,6.0,6.0,39,0.00,CLR,FEW,0.00,0.0,WeatherDisplay:10.37,2013-04-05 23:33:00,
2013-04-05 18:38:00,37.6,14.8,30.14,South,187,5.0,5.0,39,0.00,CLR,FEW,0.00,0.0,WeatherDisplay:10.37,2013-04-05 23:38:00,
2013-04-05 18:43:00,37.6,15.4,30.14,South,186,6.0,6.0,40,0.00,CLR,FEW,0.00,0.0,WeatherDisplay:10.37,2013-04-05 23:43:00,
2013-04-05 18:49:00,37.5,15.3,30.14,South,175,7.0,7.0,40,0.00,CLR,FEW,0.00,0.0,WeatherDisplay:10.37,2013-04-05 23:49:00,
2013-04-05 18:54:00,37.3,15.2,30.14,South,177,8.1,8.1,40,0.00,CLR,FEW,0.00,0.0,WeatherDisplay:10.37,2013-04-05 23:54:00,
2013-04-05 18:59:00,37.2,15.1,30.14,South,174,8.1,8.1,40,0.00,CLR,FEW,0.00,0.0,WeatherDisplay:10.37,2013-04-05 23:59:00,
2013-04-05 19:04:00,37.2,15.6,30.13,South,173,6.0,6.0,41,0.00,CLR,FEW,0.00,0.0,WeatherDisplay:10.37,2013-04-06 00:04:00,
2013-04-05 19:09:00,37.0,15.5,30.13,South,172,5.0,8.0,41,0.00,CLR,FEW,0.00,0.0,WeatherDisplay:10.37,2013-04-06 00:09:00,
2013-04-05 19:14:00,36.9,14.8,30.13,South,169,3.5,3.5,40,0.00,CLR,FEW,0.00,0.0,WeatherDisplay:10.37,2013-04-06 00:14:00,
2013-04-05 19:20:00,36.9,14.8,30.13,SSE,168,4.0,4.0,40,0.00,CLR,FEW,0.00,0.0,WeatherDisplay:10.37,2013-04-06 00:20:00,
2013-04-05 19:25:00,36.6,15.1,30.13,SSE,167,6.0,6.0,41,0.00,CLR,FEW,0.00,0.0,WeatherDisplay:10.37,2013-04-06 00:25:00,
2013-04-05 19:30:00,36.5,16.1,30.13,South,169,4.6,4.6,43,0.00,CLR,FEW,0.00,0.0,WeatherDisplay:10.37,2013-04-06 00:30:00,
2013-04-05 19:35:00,36.3,14.8,30.13,SSE,168,5.0,5.0,41,0.00,CLR,FEW,0.00,0.0,WeatherDisplay:10.37,2013-04-06 00:35:00,
2013-04-05 19:40:00,36.2,14.7,30.13,South,169,5.8,5.8,41,0.00,CLR,FEW,0.00,0.0,WeatherDisplay:10.37,2013-04-06 00:40:00,
2013-04-05 19:45:00,35.9,15.0,30.13,South,169,6.0,6.0,42,0.00,CLR,FEW,0.00,0.0,WeatherDisplay:10.37,2013-04-06 00:45:00,
2013-04-05 19:50:00,35.9,13.9,30.13,SSE,168,4.6,4.6,40,0.00,CLR,FEW,0.00,0.0,WeatherDisplay:10.37,2013-04-06 00:50:00,
2013-04-05 19:55:00,35.8,15.5,30.13,South,169,4.0,4.0,43,0.00,CLR,FEW,0.00,0.0,WeatherDisplay:10.37,2013-04-06 00:55:00,
2013-04-05 20:00:00,35.5,17.2,30.13,South,169,5.8,5.8,47,0.00,CLR,FEW,0.00,0.0,WeatherDisplay:10.37,2013-04-06 01:00:00,
2013-04-05 20:06:00,35.2,17.0,30.12,South,171,6.0,6.0,47,0.00,CLR,FEW,0.00,0.0,WeatherDisplay:10.37,2013-04-06 01:06:00,
2013-04-05 20:11:00,35.3,16.0,30.12,SSE,168,8.1,8.1,45,0.00,CLR,FEW,0.00,0.0,WeatherDisplay:10.37,2013-04-06 01:11:00,
2013-04-05 20:17:00,35.5,14.6,30.12,South,170,6.0,6.0,42,0.00,CLR,FEW,0.00,0.0,WeatherDisplay:10.37,2013-04-06 01:17:00,
2013-04-05 20:22:00,35.5,14.6,30.12,SSW,206,8.1,8.1,42,0.00,CLR,FEW,0.00,0.0,WeatherDisplay:10.37,2013-04-06 01:22:00,
2013-04-05 20:27:00,35.3,16.6,30.13,SSW,210,10.4,10.4,46,0.00,CLR,FEW,0.00,0.0,WeatherDisplay:10.37,2013-04-06 01:27:00,
2013-04-05 20:32:00,35.3,18.0,30.13,SSW,198,10.4,10.4,49,0.00,CLR,FEW,0.00,0.0,WeatherDisplay:10.37,2013-04-06 01:32:00,
2013-04-05 20:37:00,35.3,20.3,30.13,South,176,12.7,12.7,54,0.00,CLR,FEW,0.00,0.0,WeatherDisplay:10.37,2013-04-06 01:37:00,
2013-04-05 20:43:00,35.3,21.6,30.13,SSW,197,11.0,11.0,57,0.00,CLR,FEW,0.00,0.0,WeatherDisplay:10.37,2013-04-06 01:43:00,
2013-04-05 20:48:00,35.3,20.7,30.13,South,170,10.4,10.4,55,0.00,CLR,FEW,0.00,0.0,WeatherDisplay:10.37,2013-04-06 01:48:00,
2013-04-05 20:53:00,35.3,21.2,30.13,South,176,5.8,5.8,56,0.00,CLR,FEW,0.00,0.0,WeatherDisplay:10.37,2013-04-06 01:53:00,
2013-04-05 20:58:00,35.3,21.2,30.13,SSE,164,9.2,9.2,56,0.00,CLR,FEW,0.00,0.0,WeatherDisplay:10.37,2013-04-06 01:58:00,
2013-04-05 21:03:00,35.3,20.3,30.13,SSE,162,8.1,8.1,54,0.00,CLR,FEW,0.00,0.0,WeatherDisplay:10.37,2013-04-06 02:03:00,
2013-04-05 21:09:00,35.3,20.7,30.14,South,174,10.4,10.4,55,0.00,CLR,FEW,0.00,0.0,WeatherDisplay:10.37,2013-04-06 02:09:00,
2013-04-05 21:14:00,35.2,21.9,30.14,SSE,163,19.6,19.6,58,0.00,CLR,FEW,0.00,0.0,WeatherDisplay:10.37,2013-04-06 02:14:00,
2013-04-05 21:19:00,35.0,20.9,30.14,South,174,11.5,11.5,56,0.00,CLR,FEW,0.00,0.0,WeatherDisplay:10.37,2013-04-06 02:19:00,
2013-04-05 21:25:00,34.9,22.8,30.13,SW,219,17.0,17.0,61,0.00,CLR,FEW,0.00,0.0,WeatherDisplay:10.37,2013-04-06 02:25:00,
2013-04-05 21:30:00,34.7,21.8,30.13,South,183,10.4,10.4,59,0.00,CLR,FEW,0.00,0.0,WeatherDisplay:10.37,2013-04-06 02:30:00,
2013-04-05 21:35:00,34.7,21.4,30.13,SSE,164,12.7,12.7,58,0.00,CLR,FEW,0.00,0.0,WeatherDisplay:10.37,2013-04-06 02:35:00,
2013-04-05 21:40:00,34.7,22.2,30.13,SSE,158,16.1,16.1,60,0.00,CLR,FEW,0.00,0.0,WeatherDisplay:10.37,2013-04-06 02:40:00,
2013-04-05 21:45:00,34.7,22.2,30.13,South,170,13.8,13.8,60,0.00,CLR,FEW,0.00,0.0,WeatherDisplay:10.37,2013-04-06 02:45:00,
2013-04-05 21:50:00,34.7,21.8,30.12,SSE,163,12.7,12.7,59,0.00,CLR,FEW,0.00,0.0,WeatherDisplay:10.37,2013-04-06 02:50:00,
2013-04-05 21:55:00,34.7,21.8,30.12,SE,144,12.7,12.7,59,0.00,CLR,FEW,0.00,0.0,WeatherDisplay:10.37,2013-04-06 02:55:00,
2013-04-05 22:01:00,34.7,21.8,30.12,SSE,161,8.1,8.1,59,0.00,CLR,FEW,0.00,0.0,WeatherDisplay:10.37,2013-04-06 03:01:00,
2013-04-05 22:06:00,34.7,21.8,30.12,SSE,159,8.1,8.1,59,0.00,CLR,FEW,0.00,0.0,WeatherDisplay:10.37,2013-04-06 03:06:00,
2013-04-05 22:11:00,34.7,21.4,30.12,SE,139,11.0,11.0,58,0.00,CLR,FEW,0.00,0.0,WeatherDisplay:10.37,2013-04-06 03:11:00,
2013-04-05 22:16:00,34.7,21.0,30.11,SSE,153,15.0,15.0,57,0.00,CLR,FEW,0.00,0.0,WeatherDisplay:10.37,2013-04-06 03:16:00,
2013-04-05 22:21:00,34.7,21.4,30.12,SE,133,10.4,10.4,58,0.00,CLR,FEW,0.00,0.0,WeatherDisplay:10.37,2013-04-06 03:21:00,
2013-04-05 22:26:00,34.7,21.4,30.11,SSE,150,11.5,11.5,58,0.00,CLR,FEW,0.00,0.0,WeatherDisplay:10.37,2013-04-06 03:26:00,
2013-04-05 22:31:00,34.6,21.3,30.12,South,175,11.5,11.5,58,0.00,CLR,FEW,0.00,0.0,WeatherDisplay:10.37,2013-04-06 03:31:00,
2013-04-05 22:36:00,34.6,21.7,30.12,SSW,204,9.2,9.2,59,0.00,CLR,FEW,0.00,0.0,WeatherDisplay:10.37,2013-04-06 03:36:00,
2013-04-05 22:41:00,34.6,21.7,30.12,SSE,158,10.4,10.4,59,0.00,CLR,FEW,0.00,0.0,WeatherDisplay:10.37,2013-04-06 03:41:00,
2013-04-05 22:46:00,34.6,22.5,30.12,SE,145,15.0,15.0,61,0.00,CLR,FEW,0.00,0.0,WeatherDisplay:10.37,2013-04-06 03:46:00,
2013-04-05 22:52:00,34.4,22.7,30.11,SSE,160,13.8,13.8,62,0.00,CLR,FEW,0.00,0.0,WeatherDisplay:10.37,2013-04-06 03:52:00,
2013-04-05 22:57:00,34.3,23.7,30.12,SSW,204,14.0,14.0,65,0.00,CLR,FEW,0.00,0.0,WeatherDisplay:10.37,2013-04-06 03:57:00,
2013-04-05 23:00:00,34.1,23.9,30.12,SSE,163,19.6,19.6,66,0.00,CLR,FEW,0.00,0.0,WeatherDisplay:10.37,2013-04-06 04:00:00,
2013-04-05 23:02:00,34.0,24.5,30.12,South,182,17.3,17.3,68,0.00,CLR,FEW,0.00,0.0,WeatherDisplay:10.37,2013-04-06 04:02:00,
2013-04-05 23:07:00,33.4,25.0,30.12,SSE,168,15.0,15.0,71,0.00,CLR,FEW,0.00,0.0,WeatherDisplay:10.37,2013-04-06 04:07:00,
2013-04-05 23:12:00,32.5,25.8,30.12,SSE,155,11.0,11.0,76,0.00,CLR,FEW,0.00,0.0,WeatherDisplay:10.37,2013-04-06 04:12:00,
2013-04-05 23:17:00,31.9,26.1,30.11,South,173,10.0,10.0,79,0.00,CLR,FEW,0.00,0.0,WeatherDisplay:10.37,2013-04-06 04:17:00,
2013-04-05 23:22:00,31.5,26.3,30.11,SE,140,11.5,11.5,81,0.00,CLR,FEW,0.00,0.0,WeatherDisplay:10.37,2013-04-06 04:22:00,
2013-04-05 23:27:00,31.2,26.3,30.11,SE,129,11.5,11.5,82,0.00,CLR,FEW,0.00,0.0,WeatherDisplay:10.37,2013-04-06 04:27:00,
2013-04-05 23:32:00,30.9,26.3,30.11,SSE,156,10.4,10.4,83,0.00,CLR,FEW,0.00,0.0,WeatherDisplay:10.37,2013-04-06 04:32:00,
2013-04-05 23:37:00,30.7,26.4,30.11,SE,130,7.0,7.0,84,0.00,CLR,FEW,0.00,0.0,WeatherDisplay:10.37,2013-04-06 04:37:00,
2013-04-05 23:42:00,30.6,26.9,30.10,SE,128,9.2,9.2,86,0.00,CLR,FEW,0.00,0.0,WeatherDisplay:10.37,2013-04-06 04:42:00,
2013-04-05 23:48:00,30.4,26.7,30.10,SE,127,5.8,5.8,86,0.00,CLR,FEW,0.00,0.0,WeatherDisplay:10.37,2013-04-06 04:48:00,
2013-04-05 23:53:00,30.3,26.9,30.10,SE,137,9.2,9.2,87,0.00,CLR,FEW,0.00,0.0,WeatherDisplay:10.37,2013-04-06 04:53:00,
2013-04-05 23:58:00,30.3,27.2,30.10,ESE,119,8.1,8.1,88,0.00,CLR,FEW,0.00,0.0,WeatherDisplay:10.37,2013-04-06 04:58:00,